Location: Santa Cristina
(46.5667°N, 11.7167°E)
Time: 04:50:21
(UTC+00:00)

Cosmos 1238 Rocket - Pass Details

Date: 21 April 2021
Orbit: 376 x 1020 km, 83.0° (Epoch: 10 May)

Event Time Altitude Azimuth Distance (km) Brightness Sun altitude
Rises 00:01:03 0° 354° (N) 3,606 8.0 -30.5°
Reaches altitude 10° 00:03:33 10° 358° (N) 2,716 7.2 -30.4°
Maximum altitude 00:09:51 59° 78° (ENE) 1,160 4.4 -30.1°
Enters shadow 00:10:42 55° 109° (ESE) 1,210 4.3 -30.1°
